Flag for U.S.A. Weather past 2 weeks in Wilmington, Delaware, U.S.A.

Now
69 °F

Clear.


Feels Like: 69 °F
Forecast: 68 / 79 °F
Wind: 3 mph from Southwest

Location: New Castle County Airport

Current Time: Jul 28, 2014 at 7:35:55 AM

Latest Report: Jul 28, 2014 at 6:51 AM


Visibility: 10 mi

Pressure: 29.57 "Hg

Humidity: 96%

Dew point: 68 °F

Location of WilmingtonLocation

Historic Weather in Wilmington — Graph

°F

Wilmington temperature yesterday

Maximum temperature yesterday: 88 °F (at 2:51 PM)
Minimum temperature yesterday: 73 °F (at 2:51 AM)
Average temperature yesterday: 80 °F

Past Weeks' High & Low Weather Summary

 TemperatureHumidityPressure
High90 °F (Jul 23, 2:51 PM)97% (Jul 15, 1:51 AM)30.25 "Hg (Jul 15, 1:51 AM)
Low58 °F (Jul 18, 5:51 AM)37% (Jul 18, 4:51 PM)29.56 "Hg (Jul 28, 4:51 AM)
Average75 °F71%29.98 "Hg
* Reported Jul 13 5:51 AM — Jul 28 5:51 AM, Wilmington, Weather by CustomWeather, © 2014

Note: Actual official high and low records may vary slightly from our data, if they occured in-between our weather recording intervals... More about our weather records

Advertising

Wilmington weather history for previous 24 hours

 ConditionsComfort  
Time TempWeatherWind HumidityBarometerVisibility
5:51 AM
Jul 28
68 °FClear.No wind96%29.56 "Hg10 mi
4:51 AM69 °FPassing clouds.5 mph93%29.56 "Hg10 mi
3:51 AM69 °FPassing clouds.No wind93%29.57 "Hg10 mi
2:51 AM69 °FPassing clouds.No wind93%29.57 "Hg10 mi
1:51 AM69 °FLight rain. Passing clouds.5 mph90%29.63 "Hg9 mi
12:51 AM72 °FStrong thunderstorms. Fog.13 mph91%29.65 "Hg1 mi
11:51 PM
Jul 27
78 °FThunderstorms. Mostly cloudy.12 mph82%29.63 "Hg10 mi
10:51 PM79 °FPassing clouds.10 mph79%29.65 "Hg10 mi
9:51 PM79 °FClear.9 mph77%29.68 "Hg10 mi
8:51 PM80 °FPassing clouds.10 mph74%29.68 "Hg10 mi
7:51 PM82 °FSunny.8 mph72%29.68 "Hg10 mi
6:51 PM83 °FSunny.10 mph70%29.69 "Hg10 mi
5:51 PM85 °FSunny.15 mph68%29.70 "Hg10 mi
4:51 PM86 °FScattered clouds.14 mph63%29.72 "Hg10 mi
3:51 PM87 °FBroken clouds.13 mph59%29.73 "Hg10 mi
2:51 PM88 °FPartly sunny.10 mph55%29.74 "Hg10 mi
1:51 PM87 °FScattered clouds.6 mph55%29.75 "Hg10 mi
12:51 PM86 °FSunny.8 mph57%29.76 "Hg10 mi
11:51 AM83 °FPassing clouds.9 mph59%29.78 "Hg10 mi
10:51 AM80 °FMostly cloudy.12 mph62%29.80 "Hg10 mi
9:51 AM81 °FPassing clouds.13 mph65%29.80 "Hg10 mi
8:51 AM78 °FSunny.9 mph74%29.81 "Hg10 mi
7:51 AM74 °FScattered clouds.5 mph94%29.80 "Hg7 mi
Weather by CustomWeather, © 2014

See weather overviewHow to use our weather pages